Starlink 31138

operational
NORAD ID: 58806 Int'l Des: 2024-012 Owner: SPXS Country: US Constellation: starlink
LEOCIRCULAR

关于 Starlink 31138

正在加载描述...

实时位置

正在加载3D地球...

即将过境

高度历史

Altitude vs Time

uPlot chart will show altitude changes over time

两行轨道根数

1 58806U 24012V 25353.12906650 .00002280 00000-0 92375-4 0 9995
2 58806 43.0013 260.3494 0001260 282.1532 77.9178 15.27577024108918
Epoch: Dec 19, 2025 • Age: 18 hours

当前状态

高度 495.3 km
速度 7.62 km/s
星下点 -42.54°S, 125.58°E
发射日期 Jan 15, 2024
运行时间 1.9 years
类型 internet

技术详情

分类 Payload
质量 730.00 kg
干质量 700.00 kg
总质量 730.00 kg
长度 0.30 m
直径 4.10 m
跨度 29.00 m
形状 Box + pan
制造商 SPXS
平台类型 Starlink V2M
阶段状态 In Orbit
所有者/国家 SPXS/US

大型星座

Loading constellations...